Date String (YYYY-MM-DD hh:mm:ss) UTC,Instrument flags,Ambient pressure (hPa),Sample flow (lpm),Bypass flow (lpm),Sample temperature (°C),Ambient temperature (°C),ASC tube jacket temperature (°C),LED temperature (°C),Box temperature (°C),Sample RH (%),Span deviation,Mass concentration (μg/m³),Mass concentration (μg/m³),Mass concentration (μg/m³)
DateTimeUTC,F1_M11,P_M11,Q1_M11,Q2_M11,T1_M11,T2_M11,T3_M11,T4_M11,T5_M11,U1_M11,ZSPAN_M11,X0_M11,X2_M11,X1_M11
2022-07-20 08:00:00,,0828.6,5.00,0.00,29.4,27.5,00.0,38.2,31.2,29.8,0000.0,0021.13,0007.61,0005.23
2022-07-20 08:01:00,,0829.1,4.99,0.00,29.4,27.7,00.0,38.2,31.3,29.7,0000.0,0020.59,0007.55,0005.21
2022-07-20 08:02:00,,0828.8,5.01,0.00,29.4,27.8,00.0,38.2,31.3,29.7,0000.0,0020.59,0007.52,0005.20
2022-07-20 08:03:00,,0828.7,5.00,0.00,29.4,28.0,00.0,38.2,31.4,29.6,0000.0,0020.70,0007.55,0005.22
2022-07-20 08:04:00,,0828.8,5.00,0.00,29.4,28.1,00.0,38.2,31.4,29.4,0000.0,0020.93,0007.62,0005.23
2022-07-20 08:05:00,,0829.3,5.00,0.00,29.5,28.2,00.0,38.2,31.4,29.3,0000.0,0021.81,0007.60,0005.24
2022-07-20 08:06:00,,0829.2,5.01,0.00,29.5,28.3,00.0,38.2,31.5,29.6,0000.0,0021.78,0007.51,0005.25
2022-07-20 08:07:00,,0829.0,4.99,0.00,29.5,28.4,00.0,38.3,31.5,29.7,0000.0,0022.02,0007.51,0005.26
2022-07-20 08:08:00,,0828.8,5.01,0.00,29.6,28.5,00.0,38.3,31.6,29.8,0000.0,0022.22,0007.48,0005.27
2022-07-20 08:09:00,,0828.9,4.98,0.00,29.6,28.6,00.0,38.3,31.6,29.6,0000.0,0023.52,0007.47,0005.29
2022-07-20 08:10:00,,0828.9,5.01,0.00,29.6,28.6,00.0,38.3,31.7,29.8,0000.0,0023.54,0007.50,0005.33
2022-07-20 08:11:00,,0828.9,4.99,0.00,29.7,28.4,00.0,38.3,31.7,30.0,0000.0,0023.92,0007.56,0005.36
2022-07-20 08:12:00,,0828.9,5.01,0.00,29.6,27.7,00.0,38.3,31.5,30.5,0000.0,0023.69,0007.66,0005.38
2022-07-20 08:13:00,,0828.9,4.99,0.00,29.6,27.4,00.0,38.2,31.5,30.6,0000.0,0024.20,0007.75,0005.39
2022-07-20 08:14:00,,0828.8,5.00,0.00,29.6,27.4,00.0,38.3,31.4,30.8,0000.0,0024.18,0007.76,0005.39
2022-07-20 08:15:00,,0828.8,5.00,0.00,29.5,27.5,00.0,38.3,31.3,31.3,0000.0,0024.50,0007.72,0005.40
2022-07-20 08:16:00,,0828.8,5.00,0.00,29.5,27.6,00.0,38.3,31.3,31.4,0000.0,0024.27,0007.66,0005.40
2022-07-20 08:17:00,,0828.9,5.00,0.00,29.5,27.8,00.0,38.3,31.4,32.0,0000.0,0024.50,0007.64,0005.38
2022-07-20 08:18:00,,0828.8,5.01,0.00,29.5,27.9,00.0,38.3,31.4,31.7,0000.0,0023.86,0007.63,0005.39
2022-07-20 08:19:00,,0828.8,5.00,0.00,29.5,28.1,00.0,38.3,31.4,30.7,0000.0,0023.53,0007.70,0005.39
2022-07-20 08:20:00,,0828.8,4.98,0.00,29.5,28.2,00.0,38.3,31.5,30.3,0000.0,0023.31,0007.73,0005.37
2022-07-20 08:21:00,,0828.8,5.01,0.00,29.6,28.3,00.0,38.3,31.5,29.2,0000.0,0022.87,0007.75,0005.35
2022-07-20 08:22:00,,0828.9,5.01,0.00,29.6,28.4,00.0,38.3,31.6,29.5,0000.0,0021.67,0007.65,0005.32
2022-07-20 08:23:00,,0828.9,5.00,0.00,29.6,28.5,00.0,38.3,31.6,30.1,0000.0,0022.20,0007.59,0005.33
2022-07-20 08:24:00,,0829.0,5.00,0.00,29.7,28.6,00.0,38.3,31.6,29.2,0000.0,0022.05,0007.49,0005.32
2022-07-20 08:25:00,,0829.0,4.99,0.00,29.7,28.7,00.0,38.4,31.7,28.0,0000.0,0022.59,0007.56,0005.33
2022-07-20 08:26:00,,0829.0,5.00,0.00,29.7,28.3,00.0,38.3,31.7,27.7,0000.0,0023.54,0007.57,0005.34
2022-07-20 08:27:00,,0829.0,5.01,0.00,29.7,27.7,00.0,38.3,31.6,27.9,0000.0,0023.46,0007.58,0005.36
2022-07-20 08:28:00,,0829.0,5.00,0.00,29.7,27.5,00.0,38.3,31.5,28.1,0000.0,0022.36,0007.57,0005.38
2022-07-20 08:29:00,,0829.0,5.00,0.00,29.6,27.5,00.0,38.3,31.4,27.7,0000.0,0021.96,0007.53,0005.39
2022-07-20 08:30:00,,0829.0,5.00,0.00,29.5,27.6,00.0,38.3,31.4,27.7,0000.0,0021.34,0007.44,0005.39
2022-07-20 08:31:00,,0829.0,5.00,0.00,29.5,27.7,00.0,38.3,31.4,27.7,0000.0,0020.14,0007.42,0005.41
2022-07-20 08:32:00,,0829.0,5.00,0.00,29.5,27.8,00.0,38.3,31.4,27.7,0000.0,0020.74,0007.40,0005.42
2022-07-20 08:33:00,,0829.0,5.01,0.00,29.5,28.0,00.0,38.3,31.4,27.7,0000.0,0021.45,0007.42,0005.44
2022-07-20 08:34:00,,0829.0,4.99,0.00,29.6,28.1,00.0,38.3,31.5,27.4,0000.0,0021.40,0007.51,0005.45
2022-07-20 08:35:00,,0829.0,5.01,0.00,29.6,28.2,00.0,38.3,31.5,27.4,0000.0,0020.42,0007.53,0005.47
2022-07-20 08:36:00,,0829.0,5.00,0.00,29.6,28.3,00.0,38.3,31.5,27.4,0000.0,0019.74,0007.49,0005.47
2022-07-20 08:37:00,,0829.0,5.01,0.00,29.6,28.4,00.0,38.4,31.6,27.3,0000.0,0018.72,0007.39,0005.47
2022-07-20 08:38:00,,0828.9,5.00,0.00,29.7,28.5,00.0,38.4,31.6,27.2,0000.0,0018.09,0007.35,0005.47
2022-07-20 08:39:00,,0828.9,4.99,0.00,29.7,28.6,00.0,38.4,31.7,27.1,0000.0,0018.46,0007.34,0005.47
2022-07-20 08:40:00,,0828.9,5.00,0.00,29.7,28.7,00.0,38.4,31.7,27.0,0000.0,0019.03,0007.31,0005.48
2022-07-20 08:41:00,,0828.9,5.01,0.00,29.8,28.6,00.0,38.4,31.8,26.9,0000.0,0018.87,0007.29,0005.49
2022-07-20 08:42:00,,0828.9,5.00,0.00,29.8,27.8,00.0,38.4,31.6,26.8,0000.0,0019.16,0007.27,0005.49
2022-07-20 08:43:00,,0828.9,4.99,0.00,29.7,27.1,00.0,38.3,31.5,26.9,0000.0,0019.09,0007.23,0005.50
2022-07-20 08:44:00,,0828.9,5.01,0.00,29.6,26.9,00.0,38.3,31.3,27.1,0000.0,0018.49,0007.18,0005.51
2022-07-20 08:45:00,,0828.9,4.99,0.00,29.5,26.9,00.0,38.3,31.2,27.2,0000.0,0018.14,0007.11,0005.49
2022-07-20 08:46:00,,0828.9,4.99,0.00,29.5,27.0,00.0,38.3,31.2,27.4,0000.0,0018.18,0007.08,0005.47
2022-07-20 08:47:00,,0828.9,5.00,0.00,29.4,27.2,00.0,38.3,31.2,27.4,0000.0,0018.43,0007.11,0005.47
2022-07-20 08:48:00,,0828.9,5.00,0.00,29.4,27.4,00.0,38.3,31.2,27.5,0000.0,0018.20,0007.08,0005.46
2022-07-20 08:49:00,,0828.9,5.00,0.00,29.4,27.6,00.0,38.2,31.2,27.5,0000.0,0018.00,0007.15,0005.45
2022-07-20 08:50:00,,0828.8,4.99,0.00,29.4,27.7,00.0,38.2,31.3,27.5,0000.0,0018.60,0007.17,0005.44
2022-07-20 08:51:00,,0828.8,5.01,0.00,29.4,27.9,00.0,38.2,31.3,27.4,0000.0,0017.83,0007.13,0005.42
2022-07-20 08:52:00,,0828.8,4.99,0.00,29.5,28.0,00.0,38.3,31.4,27.4,0000.0,0018.18,0007.15,0005.42
2022-07-20 08:53:00,,0828.8,5.01,0.00,29.5,28.1,00.0,38.3,31.4,27.4,0000.0,0018.04,0007.19,0005.43
2022-07-20 08:54:00,,0828.8,4.99,0.00,29.5,28.2,00.0,38.3,31.4,27.4,0000.0,0017.65,0007.23,0005.43
2022-07-20 08:55:00,,0828.9,4.99,0.00,29.5,28.3,00.0,38.3,31.5,27.4,0000.0,0017.86,0007.25,0005.42
2022-07-20 08:56:00,,0828.8,5.00,0.00,29.6,28.4,00.0,38.3,31.5,27.4,0000.0,0018.14,0007.31,0005.43
2022-07-20 08:57:00,,0828.9,4.99,0.00,29.6,28.5,00.0,38.3,31.6,27.4,0000.0,0019.02,0007.35,0005.43
2022-07-20 08:58:00,,0828.9,5.01,0.00,29.6,28.6,00.0,38.3,31.6,27.4,0000.0,0019.23,0007.34,0005.43
2022-07-20 08:59:00,,0829.0,4.99,0.00,29.7,28.6,00.0,38.4,31.7,27.3,0000.0,0019.27,0007.38,0005.45
